TimeMDT,TemperatureF,Dew PointF,Humidity,Sea Level PressureIn,VisibilityMPH,Wind Direction,Wind SpeedMPH,Gust SpeedMPH,PrecipitationIn,Events,Conditions,WindDirDegrees,DateUTC
12:53 AM,52.0,32.0,47,30.12,10.0,Calm,Calm,-,N/A,,Clear,0,2012-09-09 06:53:00
1:53 AM,53.1,34.0,48,30.11,10.0,SW,3.5,-,N/A,,Clear,230,2012-09-09 07:53:00
2:53 AM,48.9,33.1,54,30.12,10.0,WSW,3.5,-,N/A,,Clear,240,2012-09-09 08:53:00
3:53 AM,50.0,34.0,54,30.12,10.0,SSW,6.9,-,N/A,,Clear,200,2012-09-09 09:53:00
4:53 AM,46.0,30.0,54,30.14,10.0,SW,4.6,-,N/A,,Clear,220,2012-09-09 10:53:00
5:53 AM,45.0,30.9,58,30.16,10.0,SSW,4.6,-,N/A,,Clear,210,2012-09-09 11:53:00
6:53 AM,44.1,30.9,60,30.18,10.0,SSW,6.9,-,N/A,,Clear,200,2012-09-09 12:53:00
7:53 AM,55.9,34.0,44,30.19,10.0,SW,3.5,-,N/A,,Clear,220,2012-09-09 13:53:00
8:53 AM,63.0,37.0,38,30.19,10.0,West,4.6,-,N/A,,Clear,280,2012-09-09 14:53:00
10:53 AM,75.0,37.0,25,30.15,10.0,Calm,Calm,-,N/A,,Clear,0,2012-09-09 16:53:00
11:53 AM,81.0,36.0,20,30.14,10.0,Variable,3.5,-,N/A,,Clear,0,2012-09-09 17:53:00
12:53 PM,84.0,33.1,16,30.11,10.0,Variable,4.6,-,N/A,,Clear,0,2012-09-09 18:53:00
1:53 PM,86.0,32.0,14,30.06,10.0,SE,10.4,18.4,N/A,,Clear,130,2012-09-09 19:53:00
2:53 PM,87.1,33.1,15,30.04,10.0,SSE,13.8,19.6,N/A,,Clear,150,2012-09-09 20:53:00
3:53 PM,88.0,28.9,12,30.01,10.0,South,13.8,24.2,N/A,,Clear,180,2012-09-09 21:53:00
4:53 PM,87.1,30.0,13,30.00,10.0,SE,15.0,31.1,N/A,,Clear,140,2012-09-09 22:53:00
5:53 PM,84.9,30.0,14,30.01,10.0,SSE,13.8,-,N/A,,Clear,150,2012-09-09 23:53:00
6:53 PM,81.0,30.0,16,30.01,10.0,SE,10.4,-,N/A,,Clear,140,2012-09-10 00:53:00
7:53 PM,73.9,30.0,20,30.00,10.0,SE,11.5,-,N/A,,Clear,140,2012-09-10 01:53:00
8:53 PM,72.0,32.0,23,30.00,10.0,SSE,13.8,-,N/A,,Clear,150,2012-09-10 02:53:00
9:53 PM,70.0,32.0,25,29.98,10.0,SSE,15.0,-,N/A,,Clear,160,2012-09-10 03:53:00
10:53 PM,70.0,34.0,27,29.97,10.0,South,16.1,-,N/A,,Clear,170,2012-09-10 04:53:00
11:53 PM,66.9,35.1,31,29.96,10.0,South,16.1,-,N/A,,Clear,180,2012-09-10 05:53:00